When you browse on this site, cookies collect data to enhance your experience and personalize the content and advertising you see.
Visit our Privacy Policy to learn more. By continuing to use the site, you agree to this use of cookies and data.

Hourly Weather Ali Bayramli

Today, 5 August, Wednesday

Time Temperature Precipitation Wind Pressure Humidity
00:00 +24°C° 0 mm 1 mps 756 mmHg 57%
01:00 +24°C° 0 mm 1 mps 756 mmHg 59%
02:00 +23°C° 0 mm 1 mps 755 mmHg 60%
03:00 +23°C° 0 mm 1 mps 755 mmHg 62%
04:00 +24°C° 0 mm 1 mps 755 mmHg 59%
05:00 +25°C° 0 mm 1 mps 755 mmHg 56%
06:00 +25°C° 0 mm 1 mps 755 mmHg 53%
07:00 +26°C° 0 mm 1 mps 755 mmHg 49%
08:00 +28°C° 0 mm 1 mps 755 mmHg 44%
09:00 +29°C° 0 mm 2 mps 755 mmHg 36%
10:00 +30°C° 0 mm 2 mps 755 mmHg 34%
11:00 +31°C° 0 mm 3 mps 755 mmHg 33%
12:00 +33°C° 0 mm 4 mps 754 mmHg 31%
13:00 +33°C° 0 mm 5 mps 754 mmHg 31%
14:00 +33°C° 0 mm 5 mps 754 mmHg 32%
15:00 +33°C° 0 mm 6 mps 754 mmHg 32%
16:00 +32°C° 0 mm 6 mps 754 mmHg 35%
17:00 +30°C° 0 mm 6 mps 754 mmHg 38%
18:00 +28°C° 0 mm 6 mps 754 mmHg 40%
19:00 +27°C° 0 mm 5 mps 754 mmHg 46%
20:00 +26°C° 0 mm 4 mps 754 mmHg 52%
21:00 +25°C° 0 mm 3 mps 755 mmHg 58%
22:00 +25°C° 0 mm 2 mps 755 mmHg 60%
23:00 +24°C° 0 mm 2 mps 755 mmHg 62%

Tomorrow, 6 August, Thursday

Time Temperature Precipitation Wind Pressure Humidity
00:00 +24°C° 0 mm 1 mps 755 mmHg 64%
01:00 +24°C° 0 mm 1 mps 755 mmHg 64%
02:00 +23°C° 0 mm 1 mps 755 mmHg 64%
03:00 +23°C° 0 mm 1 mps 755 mmHg 65%
04:00 +24°C° 0 mm 1 mps 755 mmHg 63%
05:00 +24°C° 0 mm 1 mps 755 mmHg 61%
06:00 +25°C° 0 mm 1 mps 755 mmHg 59%
07:00 +26°C° 0 mm 1 mps 756 mmHg 54%
08:00 +28°C° 0 mm 1 mps 756 mmHg 49%
09:00 +27°C° 0 mm 0 mps 756 mmHg 44%
10:00 +30°C° 0 mm 2 mps 756 mmHg 39%
11:00 +33°C° 0 mm 3 mps 756 mmHg 34%
12:00 +34°C° 0 mm 4 mps 756 mmHg 28%
13:00 +34°C° 0 mm 5 mps 756 mmHg 29%
14:00 +34°C° 0 mm 6 mps 756 mmHg 29%
15:00 +34°C° 0 mm 7 mps 756 mmHg 29%
16:00 +33°C° 0 mm 7 mps 756 mmHg 33%
17:00 +32°C° 0 mm 7 mps 757 mmHg 37%
18:00 +30°C° 0 mm 7 mps 757 mmHg 41%
19:00 +29°C° 0 mm 6 mps 757 mmHg 45%
20:00 +28°C° 0 mm 5 mps 757 mmHg 50%
21:00 +27°C° 0 mm 4 mps 758 mmHg 54%
22:00 +26°C° 0 mm 3 mps 758 mmHg 56%
23:00 +26°C° 0 mm 3 mps 757 mmHg 59%

Day after tomorrow, 7 August, Friday

Time Temperature Precipitation Wind Pressure Humidity
00:00 +25°C° 0 mm 2 mps 757 mmHg 61%
01:00 +25°C° 0 mm 2 mps 757 mmHg 62%
02:00 +24°C° 0 mm 2 mps 757 mmHg 63%
03:00 +24°C° 0 mm 1 mps 757 mmHg 64%
04:00 +24°C° 0 mm 2 mps 757 mmHg 62%
05:00 +25°C° 0 mm 2 mps 757 mmHg 60%
06:00 +25°C° 0 mm 2 mps 757 mmHg 57%
07:00 +27°C° 0 mm 2 mps 757 mmHg 50%
08:00 +29°C° 0 mm 2 mps 757 mmHg 42%
09:00 +31°C° 0 mm 2 mps 757 mmHg 35%
10:00 +32°C° 0 mm 2 mps 757 mmHg 32%
11:00 +33°C° 0 mm 1 mps 757 mmHg 29%
12:00 +35°C° 0 mm 1 mps 757 mmHg 26%
13:00 +36°C° 0 mm 2 mps 757 mmHg 26%
14:00 +36°C° 0 mm 2 mps 757 mmHg 25%
15:00 +37°C° 0 mm 2 mps 756 mmHg 24%
16:00 +36°C° 0 mm 4 mps 756 mmHg 29%
17:00 +34°C° 0 mm 5 mps 756 mmHg 33%
18:00 +33°C° 0 mm 6 mps 756 mmHg 37%
19:00 +32°C° 0 mm 6 mps 757 mmHg 43%
20:00 +30°C° 0 mm 5 mps 757 mmHg 50%
21:00 +28°C° 0 mm 4 mps 757 mmHg 56%
22:00 +28°C° 0 mm 3 mps 757 mmHg 58%
23:00 +28°C° 0 mm 2 mps 757 mmHg 60%

8 August, Saturday

Time Temperature Precipitation Wind Pressure Humidity
00:00 +27°C° 0 mm 1 mps 756 mmHg 62%
01:00 +27°C° 0 mm 1 mps 756 mmHg 62%
02:00 +27°C° 0 mm 1 mps 756 mmHg 61%
03:00 +26°C° 0 mm 1 mps 755 mmHg 61%
04:00 +27°C° 0 mm 1 mps 756 mmHg 57%
05:00 +28°C° 0 mm 1 mps 756 mmHg 53%
06:00 +28°C° 0 mm 1 mps 756 mmHg 49%
07:00 +30°C° 0 mm 1 mps 756 mmHg 43%
08:00 +32°C° 0 mm 1 mps 756 mmHg 38%
09:00 +34°C° 0 mm 2 mps 755 mmHg 32%
10:00 +35°C° 0 mm 2 mps 755 mmHg 29%
11:00 +35°C° 0 mm 1 mps 755 mmHg 27%
12:00 +37°C° 0 mm 1 mps 755 mmHg 24%
13:00 +38°C° 0 mm 2 mps 754 mmHg 24%
14:00 +38°C° 0 mm 3 mps 753 mmHg 24%
15:00 +38°C° 0 mm 4 mps 753 mmHg 24%
16:00 +37°C° 0 mm 5 mps 753 mmHg 27%
17:00 +36°C° 0 mm 6 mps 753 mmHg 30%
18:00 +34°C° 0 mm 7 mps 753 mmHg 33%
19:00 +33°C° 0 mm 6 mps 753 mmHg 39%
20:00 +32°C° 0 mm 4 mps 753 mmHg 46%
21:00 +29°C° 0 mm 3 mps 753 mmHg 53%
22:00 +29°C° 0 mm 3 mps 753 mmHg 56%
23:00 +28°C° 0 mm 2 mps 753 mmHg 60%

9 August, Sunday

Time Temperature Precipitation Wind Pressure Humidity
00:00 +28°C° 0 mm 2 mps 753 mmHg 64%
01:00 +27°C° 0 mm 2 mps 753 mmHg 65%
02:00 +27°C° 0 mm 1 mps 752 mmHg 67%
03:00 +26°C° 0 mm 1 mps 752 mmHg 68%
04:00 +27°C° 0 mm 1 mps 752 mmHg 65%
05:00 +27°C° 0 mm 2 mps 752 mmHg 63%
06:00 +28°C° 0 mm 2 mps 752 mmHg 60%
07:00 +30°C° 0 mm 2 mps 752 mmHg 52%
08:00 +31°C° 0 mm 3 mps 752 mmHg 43%
09:00 +34°C° 0 mm 3 mps 752 mmHg 34%
10:00 +35°C° 0 mm 4 mps 752 mmHg 32%
11:00 +37°C° 0 mm 5 mps 752 mmHg 29%
12:00 +39°C° 0 mm 5 mps 752 mmHg 26%
13:00 +39°C° 0 mm 6 mps 752 mmHg 26%
14:00 +38°C° 0 mm 6 mps 751 mmHg 26%
15:00 +38°C° 0 mm 7 mps 751 mmHg 26%
16:00 +36°C° 0 mm 7 mps 751 mmHg 31%
17:00 +34°C° 0 mm 7 mps 751 mmHg 35%
18:00 +33°C° 0 mm 7 mps 751 mmHg 40%
19:00 +30°C° 0 mm 6 mps 751 mmHg 48%
20:00 +29°C° 0 mm 5 mps 751 mmHg 56%
21:00 +28°C° 0 mm 4 mps 752 mmHg 64%
22:00 +28°C° 0 mm 4 mps 752 mmHg 66%
23:00 +27°C° 0 mm 3 mps 752 mmHg 68%

10 August, Monday

Time Temperature Precipitation Wind Pressure Humidity
00:00 +27°C° 0 mm 3 mps 752 mmHg 70%
01:00 +27°C° 0 mm 3 mps 752 mmHg 70%
02:00 +27°C° 0 mm 3 mps 752 mmHg 70%
03:00 +26°C° 0 mm 3 mps 752 mmHg 70%
04:00 +26°C° 0 mm 3 mps 752 mmHg 69%
05:00 +27°C° 0 mm 3 mps 752 mmHg 68%
06:00 +27°C° 0 mm 3 mps 752 mmHg 67%
07:00 +29°C° 0 mm 4 mps 752 mmHg 57%
08:00 +30°C° 0 mm 4 mps 752 mmHg 48%
09:00 +33°C° 0 mm 5 mps 752 mmHg 38%
10:00 +34°C° 0 mm 5 mps 752 mmHg 34%
11:00 +35°C° 0 mm 5 mps 752 mmHg 30%
12:00 +36°C° 0 mm 6 mps 752 mmHg 27%
13:00 +36°C° 0 mm 6 mps 752 mmHg 27%
14:00 +36°C° 0 mm 6 mps 752 mmHg 28%
15:00 +35°C° 0 mm 7 mps 751 mmHg 28%
16:00 +34°C° 0 mm 6 mps 751 mmHg 32%
17:00 +33°C° 0 mm 6 mps 751 mmHg 35%
18:00 +32°C° 0 mm 6 mps 751 mmHg 39%
19:00 +30°C° 0 mm 5 mps 752 mmHg 45%
20:00 +29°C° 0 mm 5 mps 752 mmHg 50%
21:00 +28°C° 0 mm 4 mps 753 mmHg 56%
22:00 +28°C° 0 mm 4 mps 753 mmHg 57%
23:00 +27°C° 0 mm 5 mps 753 mmHg 58%
Show more